Weather Roundup
Issued by NWS Chicago, IL

Home | Current Version | Previous Version | Text Only | Print | Product List | Glossary On
Versions: 1 2 3 4 5 6 7 8 9 10 11 12 13 14 15 16 17 18 19 20 21 22 23 24 25 26 27 28 29 30 31 32 33 34 35 36 37 38 39 40 41 42 43 44 45 46 47 48 49 50
000
NZUS59 KLOT 271210
HRRLOT

CHICAGO AREA WEATHER ROUNDUP
NATIONAL WEATHER SERVICE CHICAGO/ROMEOVILLE IL
600 AM CST SAT DEC 27 2014

NOTE: "FAIR" INDICATES FEW OR NO CLOUDS BELOW 12,000 FEET WITH NO
SIGNIFICANT WEATHER AND/OR OBSTRUCTIONS TO VISIBILITY.

* THESE STATIONS ARE NOT UNDER NWS QUALITY CONTROL. THEY ALSO MAY NOT
  REPORT WEATHER SUCH AS PRECIPITATION OR FOG.

ILZ005-006-012>014-019>023-271300-
NORTHEAST ILLINOIS

CITY           SKY/WX    TMP DP  RH WIND       PRES   REMARKS
OHARE          CLOUDY    46  44  93 S14       29.95S
6HR MIN TEMP:  43; 6HR MAX TEMP:  47;

MIDWAY         CLOUDY    48  44  86 S15       29.98R
6HR MIN TEMP:  47; 6HR MAX TEMP:  48;

AURORA         CLOUDY    47  43  86 S12       29.96R FOG
6HR MIN TEMP:  44; 6HR MAX TEMP:  47;

LANSING*       CLOUDY    46  44  95 SW15      30.00R
JOLIET*        CLOUDY    46  44  93 SW9       29.99R
WAUKEGAN       CLOUDY    46  43  89 S14       29.93S
6HR MIN TEMP:  44; 6HR MAX TEMP:  46;

DUPAGE AIRPORT CLOUDY    46  44  93 S12       29.95R
6HR MIN TEMP:  44; 6HR MAX TEMP:  46;

WHEELING       CLOUDY    47  44  90 S14       29.97R
6HR MIN TEMP:  44; 6HR MAX TEMP:  47;

KANKAKEE*      CLOUDY    46  45  96 S14       30.02R
MORRIS*        CLOUDY    47  46  97 SW13G23   29.98R
LEWIS AIRPORT* CLOUDY    46  45  97 SW17      29.98R
NORTHERLY IS     N/A     46  43  89 SW12        N/A
$$

WIZ051-052-058>065-066-070>072-271300-
SOUTHEAST WISCONSIN

CITY           SKY/WX    TMP DP  RH WIND       PRES   REMARKS
MILWAUKEE      CLOUDY    45  41  86 S10       29.90F
6HR MIN TEMP:  43; 6HR MAX TEMP:  45; 6HR PCP:  0.01;

KENOSHA*       CLOUDY    46  43  89 S12       29.92S
RACINE*        CLOUDY    46  42  86 S13       29.93S
BURLINGTON     CLOUDY    44  42  94 SW13      29.91S
WAUKESHA       CLOUDY    43  41  93 SW7       29.90S
WEST BEND      CLOUDY    39  37  93 S3        29.87F FOG
$$

INZ001>003-010>013-019-020-271300-
NORTHWEST INDIANA

CITY           SKY/WX    TMP DP  RH WIND       PRES   REMARKS
GARY*          CLOUDY    48  43  81 S8G23     30.00R
MICHIGAN CITY* NOT AVBL
RENSSELAER*    NOT AVBL
VALPARAISO     CLOUDY    44  43  96 S12G22    30.02R
$$

LMZ740>746-271300-
SOUTHERN LAKE MICHIGAN

STATION/POSITION TIME  SKY/WX   TEMP WIND        PRES    VSBY
                                AIR  DIR/SP/G
                 (UTC)          (F)  (DEG/KT/KT) (MB)    (MI)
HARRISON CRIB    1200            45  200/ 21/ 24   N/A
BURNHAM HARBOR   1200            46  200/ 10/ 16   N/A
CALUMET HARBOR   1200            46  190/ 11/ 17 1014.3R
BURNS HARBOR     NOT AVBL
MICHIGAN CITY    1200            45  170/ 16/ 20   N/A
$$

ABBREVIATIONS USED IN REMARKS
   TC - TEMPERATURE IN CELSIUS
  WCI - WIND CHILL INDEX
   HX - HEAT INDEX
  VSB - VISIBILITY
$$



USA.gov is the U.S. government's official web portal to all federal, state and local government web resources and services.